Regional Weather Roundup
Issued by NWS Newport/Morehead, NC

Current Version | Previous Version | Graphics & Text | Print | Product List | Glossary Off
Versions: 1 2 3 4 5 6 7 8 9 10 11 12 13 14 15 16 17 18 19 20 21 22 23 24 25 26 27 28 29 30 31 32 33 34 35 36 37 38 39 40 41 42 43 44 45 46 47 48 49 50

000
ASUS42 KMHX 280125
RWRMHX
WEATHER ROUNDUP FOR EASTERN NORTH CAROLINA
NATIONAL WEATHER SERVICE NEWPORT/MOREHEAD CITY NC
900 PM EDT THU AUG 27 2015

NOTE: "FAIR" INDICATES FEW OR NO CLOUDS BELOW 12,000 FEET
WITH NO SIGNIFICANT WEATHER AND/OR OBSTRUCTIONS TO VISIBILITY

NCZ015>017-031-032-045>047-102-103-280200-
NORTH COAST

CITY           SKY/WX    TMP DP  RH WIND       PRES   REMARKS
EDENTON        CLOUDY    70  64  81 E3        30.10S
ELIZABETH CITY CLOUDY    73  62  68 N7        30.09R
KITTY HAWK     CLOUDY    76  62  61 NE7       30.08R
MANTEO         CLOUDY    75  63  65 NE7       30.10R

$$

NCZ045>047-081-094-103-104-280200-
CENTRAL COAST

CITY           SKY/WX    TMP DP  RH WIND       PRES   REMARKS
FRISCO         CLOUDY    71  69  93 NE6       30.05S
SWANQUARTER    NOT AVBL

$$

NCZ095-097-098-100-101-280200-
SOUTHERN COAST

CITY           SKY/WX    TMP DP  RH WIND       PRES   REMARKS
BEAUFORT       MOCLDY    73  72  96 NE9       30.06R
CEDAR ISLAND   NOT AVBL
JACKSONVILLE   MOCLDY    74  67  78 N7        30.07R
PINEY ISLAND   CLOUDY   N/A N/A N/A NE13G22   30.06R
WILMINGTON     CLOUDY    74  70  87 NE10      30.04R


$$

NCZ011>013-027>030-043-044-078>080-089-090>093-098-280200-
COASTAL PLAIN

CITY           SKY/WX    TMP DP  RH WIND       PRES   REMARKS
AHOSKIE        MOCLDY    67  64  89 CALM      30.11R
CLINTON        CLOUDY    73  66  78 NE3       30.08S
ELIZABETHTOWN  CLOUDY    73  65  75 CALM      30.07R
GOLDSBORO      CLOUDY    70  67  88 E6        30.08R
GREENVILLE     MOCLDY    70  64  83 E3        30.11R
HAVELOCK       CLOUDY    75  66  73 N10       30.08R
KENANSVILLE      N/A     70  64  79 CALM      30.10R
KINSTON        MOCLDY    70  66  88 CALM      30.10R
NEW BERN       PTCLDY    72  64  76 NE9       30.08R
RICHLANDS      CLOUDY    72  63  73 N7        30.08R
ROCKY MOUNT    MOCLDY    70  63  78 CALM      30.10R
WASHINGTON     PTCLDY    69  66  89 CALM      30.09S
WHITEVILLE     CLOUDY    73  69  87 NE6       30.05S

$$

AMZ130-135-150-152-154-156-158-170-250-252-270-ANZ085-086-088-633-658-670-280200-
MARINE OBSERVATIONS

STATION/POSITION TIME  TEMP    WIND        PRES    WAVE   SWELL
                       AIR SEA DIR/SP/G            HT/PER HT/PER
                 (UTC) (F)     (DEG/KT/KT) (MB)    (FT/S) (FT/S)
CHESAPEAKE LIGHT 0100   76      40/  8/  8 1019.8
64 E VA BEACH    0050   76 77   20/ 14/ 16 1018.1    4/ 9   3/ 9
DUCK             0100   76 78   30/ 15/ 17 1018.1
2 E DUCK         0111      78                N/A     4/ 5   2/13
OREGON INLET     0100   76 78   20/ 13/ 17 1018.5
13E OREGON INLT  0100      79                N/A     5/ 5   2/12
HATTERAS CG      0100   73 80   50/  5/  8 1017.6
DIAMOND BUOY     0050   77 82   50/ 10/ 12 1017.2    5/ 9   5/ 9
CAPE LOOKOUT     0100   75      70/  5/  5 1017.4
BEAUFORT LAB     0100   74 81   30/  7/ 10 1017.2
30 SE NEW RVR IN 0008   79 82   30/ 10/ 14 1016.7
30 SE NEW RVR IN 0025      82                N/A     4/ 6   2/11
27 SE WRIGHTSVLE 0100   76 82   90/ 10/ 12   N/A
5 SE WRIGHTSVLE  0008   79 82   50/ 19/ 25 1016.2
225 S CAPE HAT   0050   80 84  130/  8/ 10 1016.7    3/ 8   3/ 8
41 SE CHARLESTON 0050   81 85  350/  4/  6 1015.3    2/10   2/10

$$


USA.gov is the U.S. government's official web portal to all federal, state and local government web resources and services.